This demonstration page uses our WeatherBlox Daily Observations layout. Learn more.

Left ArrowRight Arrow

Hourly Observations for April 30, 2020

Temp ( °F °C ) Dew Point ( °F °C ) Humidity (%) Winds ( mph kmh ) Pressure ( in mb ) Visibility ( mi km ) Precip ( " mm )
12:53 am 00:53 Mostly Clear 66 18.9 48 8.9 52 52 Calm 29.96 1014 10 16 0.00 0.00
1:53 am 01:53 Mostly Clear 64 17.8 45 7.2 50 50 S 3 6 29.95 1014 10 16 0.00 0.00
2:53 am 02:53 Clear 63 17.2 45 7.2 52 52 Calm 29.93 1014 10 16 0.00 0.00
3:53 am 03:53 Clear 63 17.2 47 8.3 56 56 Calm 29.93 1014 10 16 0.00 0.00
4:53 am 04:53 Clear 62 16.7 48 8.9 60 60 Calm 29.94 1014 10 16 0.00 0.00
5:53 am 05:53 Mostly Clear 62 16.7 48 8.9 60 60 Calm 29.96 1015 10 16 0.00 0.00
6:53 am 06:53 Sunny 59 15 51 10.6 75 75 NNE 6 9 29.98 1015 10 16 0.00 0.00
7:53 am 07:53 Sunny 64 17.8 45 7.2 50 50 SW 7 11 30.00 1016 10 16 0.00 0.00
8:53 am 08:53 Sunny 68 20 45 7.2 44 44 W 6 9 30.01 1016 10 16 0.00 0.00
9:53 am 09:53 Sunny 71 21.7 41 5 34 34 Calm 30.01 1016 10 16 0.00 0.00
10:53 am 10:53 Sunny 73 22.8 43 6.1 34 34 S 6 9 30.02 1017 10 16 0.00 0.00
11:53 am 11:53 Sunny 74 23.3 40 4.4 29 29 SSE 12 19 30.02 1017 10 16 0.00 0.00
12:53 pm 12:53 Sunny 77 25 37 2.8 24 24 SSE 7 11 29.99 1016 10 16 0.00 0.00
1:53 pm 13:53 Sunny 79 26.1 30 -1.1 17 17 S 9 15 29.97 1015 10 16 0.00 0.00
2:53 pm 14:53 Sunny 82 27.8 30 -1.1 15 15 SSW 13 20 29.96 1014 10 16 0.00 0.00
3:53 pm 15:53 Sunny 81 27.2 32 0 17 17 S 10 17 29.93 1014 10 16 0.00 0.00
4:53 pm 16:53 Sunny 81 27.2 32 0 17 17 SSW 8 13 29.92 1013 10 16 0.00 0.00
5:53 pm 17:53 Mostly Cloudy 79 26.1 39 3.9 24 24 SSE 13 20 29.92 1013 10 16 0.00 0.00
6:53 pm 18:53 Mostly Sunny 77 25 41 5 28 28 S 8 13 29.92 1013 10 16 0.00 0.00
7:53 pm 19:53 Partly Cloudy 76 24.4 39 3.9 26 26 SSW 9 15 29.91 1013 10 16 0.00 0.00
8:53 pm 20:53 Mostly Cloudy 73 22.8 32 0 22 22 W 3 6 29.93 1014 10 16 0.00 0.00
9:53 pm 21:53 Clear 70 21.1 34 1.1 27 27 W 3 6 29.95 1014 10 16 0.00 0.00
10:53 pm 22:53 Clear 68 20 33 0.6 27 27 Calm 29.96 1015 10 16 0.00 0.00
11:53 pm 23:53 Clear 63 17.2 38 3.3 40 40 Calm 29.97 1015 10 16 0.00 0.00

Powered by AerisWeather